CW9790 Weather Reports


time (UTC)temp
C
wind
direction
speed
KPH
gust
KPH
rain 1hr
cm
rain 24hr
cm
rain mn
cm
humidity
%
barometer
mb
20260504151016 18 135 6.4 20.9 0.00 0.00 0.00 82 1011.8
20260504141016 17 135 4.8 12.9 0.00 0.00 0.00 86 1012.1
20260504081017 15 135 3.2 9.7 0.00 0.00 0.00 83 1013.5
20260504045017 16 0.0 3.2 0.00 0.00 0.00 70 1015.5
20260504044015 16 0.0 1.6 0.00 0.00 0.00 70 1015.3
20260504043015 16 0.0 0.0 0.00 0.00 0.00 70 1015.2
20260504042056 16 0.0 1.6 0.00 0.00 0.00 69 1015.3
20260504041017 16 0.0 1.6 0.00 0.00 0.00 69 1015.2
20260504040038 16 0.0 3.2 0.00 0.00 0.00 69 1015.2
20260504035017 16 0.0 3.2 0.00 0.00 0.00 69 1015.1
20260504034017 16 0.0 1.6 0.00 0.00 0.00 67 1015.1
20260504033018 16 0.0 0.0 0.00 0.00 0.00 66 1015.2
20260504032058 16 0.0 0.0 0.00 0.00 0.00 66 1015.2
20260504031018 17 0.0 0.0 0.00 0.00 0.00 66 1015.0
20260504030017 17 0.0 0.0 0.00 0.00 0.00 65 1015.0
20260504025017 17 0.0 1.6 0.00 0.00 0.00 64 1015.0
20260504024038 17 0.0 0.0 0.00 0.00 0.00 63 1014.7
20260504023017 17 0.0 0.0 0.00 0.00 0.00 62 1014.8
20260504022038 18 0.0 1.6 0.00 0.00 0.00 60 1014.8
20260504021017 18 0.0 0.0 0.00 0.00 0.00 59 1014.6
20260504020017 18 0.0 1.6 0.00 0.00 0.00 57 1014.6
20260504015037 19 0.0 1.6 0.00 0.00 0.00 55 1014.5
20260504014018 19 0.0 1.6 0.00 0.00 0.00 54 1014.4
20260504013017 20 0.0 4.8 0.00 0.00 0.00 52 1014.6
20260504012017 20 0.0 1.6 0.00 0.00 0.00 50 1014.4
20260504011017 20 135 1.6 6.4 0.00 0.00 0.00 49 1014.1
20260504010017 21 158 1.6 11.3 0.00 0.00 0.00 48 1014.2
20260504005017 21 135 1.6 6.4 0.00 0.00 0.00 46 1014.1
20260504004017 21 158 3.2 16.1 0.00 0.00 0.00 46 1014.0
20260504003017 22 135 3.2 8.0 0.00 0.00 0.00 45 1014.2
20260504002017 22 135 3.2 14.5 0.00 0.00 0.00 44 1014.1
20260504001017 22 135 3.2 11.3 0.00 0.00 0.00 43 1014.2
20260504000017 23 135 3.2 14.5 0.00 0.00 0.00 42 1014.3
20260503235017 23 135 4.8 14.5 0.00 0.00 0.00 40 1014.6
20260503234037 23 135 3.2 11.3 0.00 0.00 0.00 40 1014.7
20260503233018 24 203 3.2 11.3 0.00 0.00 0.00 39 1015.0
20260503232037 24 135 4.8 14.5 0.00 0.00 0.00 38 1015.0
20260503231018 24 135 3.2 14.5 0.00 0.00 0.00 41 1015.0
20260503230017 23 135 4.8 14.5 0.00 0.00 0.00 41 1014.9
20260503225018 25 158 3.2 14.5 0.00 0.00 0.00 37 1015.0
20260503224017 25 135 4.8 16.1 0.00 0.00 0.00 36 1015.3
20260503223037 26 135 4.8 20.9 0.00 0.00 0.00 35 1015.2
20260503222016 26 135 3.2 16.1 0.00 0.00 0.00 34 1015.4
20260503221017 26 135 3.2 14.5 0.00 0.00 0.00 34 1015.6
20260503220017 26 135 4.8 16.1 0.00 0.00 0.00 36 1015.6
20260503215017 25 135 3.2 11.3 0.00 0.00 0.00 35 1015.8
20260503214017 25 113 3.2 11.3 0.00 0.00 0.00 35 1016.1
20260503213017 26 135 3.2 14.5 0.00 0.00 0.00 35 1016.5
20260503212016 26 135 4.8 19.3 0.00 0.00 0.00 33 1016.5
20260503211017 26 135 6.4 17.7 0.00 0.00 0.00 33 1016.9
20260503210017 26 135 4.8 16.1 0.00 0.00 0.00 36 1017.0
20260503205037 26 135 4.8 17.7 0.00 0.00 0.00 37 1017.2
20260503204017 26 135 4.8 14.5 0.00 0.00 0.00 34 1017.5
20260503203016 26 135 3.2 11.3 0.00 0.00 0.00 36 1017.6
20260503202017 26 135 4.8 11.3 0.00 0.00 0.00 35 1017.8
20260503201016 25 158 4.8 17.7 0.00 0.00 0.00 35 1017.9
20260503200016 26 158 4.8 19.3 0.00 0.00 0.00 34 1018.2
20260503195037 26 90 4.8 19.3 0.00 0.00 0.00 33 1018.4
20260503194016 25 135 4.8 19.3 0.00 0.00 0.00 35 1018.5
20260503193016 25 158 4.8 19.3 0.00 0.00 0.00 35 1018.7
20260503192016 25 135 3.2 11.3 0.00 0.00 0.00 34 1018.8
20260503191038 25 158 4.8 14.5 0.00 0.00 0.00 36 1019.0
20260503190016 25 158 4.8 12.9 0.00 0.00 0.00 35 1019.1
20260503185016 25 135 4.8 17.7 0.00 0.00 0.00 34 1019.2
20260503184017 25 135 4.8 14.5 0.00 0.00 0.00 36 1019.3
20260503183016 25 135 4.8 19.3 0.00 0.00 0.00 37 1019.6
20260503182017 25 158 3.2 11.3 0.00 0.00 0.00 40 1019.7
20260503181036 25 135 4.8 17.7 0.00 0.00 0.00 38 1020.0
20260503180016 25 135 3.2 17.7 0.00 0.00 0.00 39 1020.2
20260503175015 25 135 3.2 16.1 0.00 0.00 0.00 38 1020.3
20260503174017 24 135 4.8 16.1 0.00 0.00 0.00 38 1020.4
20260503173017 24 113 4.8 17.7 0.00 0.00 0.00 41 1020.8
20260503172016 24 135 4.8 14.5 0.00 0.00 0.00 39 1020.9
20260503171036 24 113 3.2 11.3 0.00 0.00 0.00 41 1021.0